Location: Omaha
(41.2590°N, 95.9380°W)
Time: 08:48:23
(UTC-05:00)

N. Korean satellite - Pass Details

Date: 13 October 2017
Orbit: 459 x 517 km, 97.2° (Epoch: 22 October)

Event Time Altitude Azimuth Distance (km) Brightness Sun altitude
Rises 20:20:57 0° 203° (SSW) 2,553 10.5 -18.7°
Reaches altitude 10° 20:23:36 10° 224° (SW) 1,665 9.8 -19.2°
Maximum altitude 20:25:58 17° 266° (W) 1,293 9.7 -19.7°
Drops below altitude 10° 20:28:21 10° 308° (NW) 1,653 10.1 -20.1°
Sets 20:30:58 0° 330° (NNW) 2,526 10.7 -20.6°
